Home   Weather   Abilene   Past weeks

Flag for USA Past Weather in Abilene, Texas, USA — Yesterday and Last 2 Weeks

Now
42 °F

Low clouds.


Feels Like: 37 °F
Forecast: 38 / 54 °F
Wind: 8 mph from North

Location: Abilene Regional Airport

Current Time: Jan 18, 2017 at 4:14:06 am

Latest Report: Jan 18, 2017 at 2:52 am


Visibility: 7 mi

Pressure: 30.14 "Hg (28.27 "Hg at 524m altitude)

Humidity: 100%

Dew Point: 42 °F

Location of AbileneLocation

Past Weather in Abilene — Graph

°F

Abilene Temperature Yesterday

Maximum temperature yesterday: 45 °F (at 12:52 pm)
Minimum temperature yesterday: 36 °F (at 5:52 am)
Average temperature yesterday: 41 °F

High & Low Weather Summary for the Past Weeks

 TemperatureHumidityPressure
High80 °F (Jan 11, 2:52 pm)100% (Jan 14, 3:52 am)30.77 "Hg (Jan 14, 3:52 am)
Low10 °F (Jan 7, 6:52 am)11% (Jan 10, 2:52 pm)29.71 "Hg (Jan 11, 4:52 pm)
Average41 °F69%30.16 "Hg
* Reported Jan 3 2:52 am — Jan 18 2:52 am, Abilene, Weather by CustomWeather, © 2017

Note: Actual official high and low records may vary slightly from our data, if they occured in-between our weather recording intervals... More about our weather records

Advertising

Abilene Weather History for the Previous 24 Hours

Scroll right to see more
 ConditionsComfort  
Time TempWeatherWind HumidityBarometerVisibility
2:52 am
Wed, Jan 18
42 °FLow clouds.8 mph100%30.14 "Hg7 mi
1:52 am42 °FFog.8 mph100%30.15 "Hg6 mi
12:52 am42 °FLow clouds.7 mph100%30.16 "Hg7 mi
11:52 pm
Tue, Jan 17
42 °FLow clouds.5 mph100%30.18 "Hg7 mi
10:59 pm42 °FFog.6 mph100%30.18 "Hg6 mi
10:31 pm42 °FFog.7 mph100%30.18 "Hg5 mi
9:52 pm42 °FFog.7 mph100%30.19 "Hg6 mi
9:16 pm42 °FLight rain. Fog.5 mph100%30.17 "Hg5 mi
8:52 pm42 °FLight rain. Mostly cloudy.3 mph100%30.18 "Hg7 mi
7:52 pm42 °FOvercast.5 mph100%30.15 "Hg10 mi
7:17 pm42 °FMostly cloudy.8 mph100%30.15 "Hg10 mi
6:52 pm42 °FMostly cloudy.5 mph100%30.15 "Hg10 mi
5:52 pm42 °FLight rain. Fog.8 mph100%30.13 "Hg3 mi
4:52 pm42 °FLight rain. Mostly cloudy.5 mph100%30.16 "Hg9 mi
4:10 pm42 °FLight rain. Fog.13 mph100%30.12 "Hg5 mi
3:55 pm42 °FLight rain. Fog.8 mph100%30.14 "Hg3 mi
3:22 pm42 °FLight rain. Fog.7 mph100%30.13 "Hg4 mi
3:04 pm42 °FRain. Fog.3 mph100%30.14 "Hg2 mi
1:52 pm44 °FLight rain. Mostly cloudy.7 mph85%30.12 "Hg7 mi
12:52 pm45 °FMostly cloudy.13 mph74%30.12 "Hg10 mi
11:52 am44 °FOvercast.7 mph76%30.19 "Hg10 mi
10:52 am44 °FPartly sunny.13 mph73%30.22 "Hg10 mi
9:52 am41 °FPassing clouds.9 mph82%30.21 "Hg10 mi
8:52 am38 °FScattered clouds.6 mph93%30.21 "Hg10 mi
7:52 am37 °FPartly sunny.3 mph96%30.19 "Hg10 mi
6:52 am36 °FPassing clouds.5 mph97%30.16 "Hg10 mi
5:52 am36 °FClear.5 mph97%30.15 "Hg10 mi
4:52 am37 °FClear.6 mph93%30.13 "Hg10 mi
Weather by CustomWeather, © 2017

See weather overviewHow to use our weather pages